Location: Ab? ar R?sh Ba?r?
(24.1861°N, 32.8847°E)
Time: 23:10:37
(UTC+00:00)

H-2A R/B - Pass Details

Date: 24 October 2021
Orbit: 577 x 653 km, 98.5° (Epoch: 05 December)

Event Time Altitude Azimuth Distance (km) Brightness Sun altitude
Rises 15:38:10 0° 37° (NE) 2,824 5.0 -6.1°
Reaches altitude 10° 15:41:02 10° 59° (ENE) 1,933 4.0 -6.8°
Maximum altitude 15:43:40 16° 98° (E) 1,578 3.6 -7.4°
Drops below altitude 10° 15:46:19 10° 137° (SE) 1,956 4.3 -8.0°
Sets 15:49:14 0° 158° (SSE) 2,874 5.4 -8.6°
